Location: Joplin, MO
(37.0842°N, 94.5133°W)
Time: 19:03:41
(UTC+02:00)

Courier 1B Rocket - Pass Details

Date: 02 April 2023
Orbit: 920 x 1202 km, 28.2° (Epoch: 08 June)

Event Time Altitude Azimuth Distance (km) Brightness Sun altitude
Rises 01:29:06 0° 239° (WSW) 4,070 9.4 13.4°
Reaches altitude 10° 01:32:14 10° 231° (SW) 3,087 8.7 12.7°
Maximum altitude 01:39:02 35° 168° (SSE) 1,737 6.4 11.4°
Drops below altitude 10° 01:45:30 10° 105° (ESE) 2,932 7.0 10.1°
Sets 01:48:24 0° 97° (E) 3,844 7.4 9.5°
